Location: *
(45.5667°S, 177.5167°W)
Time: 22:10:45
(UTC+00:00)

Cosmos 968 Rocket - Pass Details

Date: 29 May 2022
Orbit: 741 x 770 km, 74.0° (Epoch: 24 June)

Event Time Altitude Azimuth Distance (km) Brightness Sun altitude
Rises 05:19:23 0° 205° (SSW) 3,282 6.8 -10.6°
Reaches altitude 10° 05:21:49 10° 208° (SSW) 2,346 6.1 -11.0°
Maximum altitude 05:27:03 59° 286° (WNW) 897 4.2 -11.8°
Drops below altitude 10° 05:32:11 10° 4° (N) 2,304 6.2 -12.7°
Sets 05:34:34 0° 8° (N) 3,217 6.9 -13.1°
